Theta_e
296 296 297 297 297 298 298 298 298 297 297 296 296 295 295 294 294 295 295 295 296 296 296 296 296 297 297 297 298 298 299 299 299 299 299 299 299 298 298 297 297 296 296 295 294 294 293 293 292 292 292 292 292 292 293 294 294 296 296 296 296 295 295 295 294 294 294 294 294 294 294 294 295 295
294 295 295 296 296 297 297 297 297 297 297 297 296 296 295 295 294 294 294 295 295 295 295 296 296 296 296 297 297 297 298 298 298 299 298 298 299 298 298 297 296 296 295 295 294 294 294 293 293 292 292 292 292 292 293 294 295 295 296 295 295 295 294 294 294 294 294 294 294 294 294 294 294 294
290 291 292 293 294 295 296 296 296 296 296 296 296 296 295 295 295 294 294 294 294 295 295 295 295 296 296 296 296 297 297 297 298 298 298 298 298 298 298 297 296 296 295 294 294 294 293 293 293 293 292 292 292 293 294 295 296 296 296 296 295 295 294 294 294 294 294 293 293 293 293 293 294 294
287 288 288 289 291 292 294 295 295 296 296 296 296 296 296 295 295 295 294 293 294 294 294 295 295 295 295 296 296 296 296 297 297 297 297 298 298 298 298 297 297 296 295 294 294 294 293 293 293 292 292 292 292 293 294 295 296 296 296 296 296 295 295 294 294 294 293 293 292 293 293 293 293 293
286 286 287 287 287 288 289 291 293 294 295 295 295 295 295 295 295 295 294 294 294 294 294 294 294 295 295 295 296 296 296 296 296 296 297 297 298 298 298 298 297 296 296 294 293 293 293 293 293 292 292 292 292 293 294 295 296 297 297 296 296 296 295 295 295 294 293 292 292 292 292 292 293 293
286 286 286 286 287 286 287 287 288 290 292 293 294 295 295 295 295 294 294 294 294 294 294 294 294 294 295 295 295 295 296 296 296 296 296 297 297 298 298 297 297 297 296 295 294 293 293 293 292 292 292 292 292 293 294 295 296 296 297 296 296 295 295 295 295 294 293 292 292 292 292 292 292 292
286 286 286 286 286 286 286 286 286 287 288 289 291 293 294 294 295 294 294 294 294 294 294 294 294 294 294 294 295 295 295 296 296 296 296 296 297 297 297 297 297 297 296 296 294 293 292 292 292 292 292 292 292 293 294 295 296 296 297 297 296 295 295 295 295 294 293 292 292 292 292 292 292 292
286 286 286 286 286 286 286 286 286 286 286 286 287 289 290 292 294 294 294 293 293 293 293 294 294 293 294 294 294 295 295 296 296 296 296 296 296 297 297 297 297 297 296 295 295 293 292 292 292 292 292 292 292 293 294 294 295 296 296 296 296 295 295 295 295 294 293 292 291 291 291 292 292 292
286 286 286 286 286 286 286 286 286 286 286 286 286 286 287 288 290 292 293 294 293 293 293 294 293 293 293 293 293 294 294 295 296 296 296 296 296 296 297 297 297 297 296 295 295 294 292 292 291 291 291 292 292 292 293 294 295 295 296 296 296 295 295 295 294 293 292 291 291 291 291 291 291 291
285 285 285 286 286 285 286 286 286 286 286 286 286 286 286 286 286 288 291 293 293 293 293 293 293 293 293 293 293 293 293 294 295 296 296 296 296 296 296 297 297 297 296 296 295 295 293 292 291 291 291 291 291 292 293 293 294 295 295 295 295 295 295 295 294 293 292 291 291 291 291 291 291 291
284 284 284 285 285 285 285 285 285 285 285 286 286 286 286 285 285 285 287 289 292 293 294 293 293 293 293 292 293 293 293 293 294 295 295 296 296 296 296 296 296 296 296 296 295 295 294 292 291 291 290 290 291 292 292 293 293 294 294 295 295 295 295 295 294 293 291 291 291 290 290 291 291 291
284 284 284 284 284 284 284 284 284 284 284 285 285 285 285 285 285 285 285 286 288 291 293 293 293 293 292 292 292 292 292 292 293 294 294 295 295 296 296 296 296 296 296 296 296 295 294 293 292 291 290 290 290 291 292 292 293 293 294 294 294 295 295 295 295 294 292 291 290 290 290 290 290 291
284 284 283 283 283 283 283 283 283 283 284 284 284 285 285 285 285 285 285 285 285 287 290 292 293 293 292 292 292 291 291 292 292 293 293 294 295 295 295 296 296 296 296 296 296 295 295 294 293 292 291 290 290 291 291 292 292 293 293 294 294 294 294 294 295 295 293 292 290 290 290 290 290 290
284 284 284 284 284 283 283 283 283 283 283 283 283 284 284 284 285 285 285 285 285 285 287 289 291 291 292 293 292 291 291 291 291 292 292 293 293 294 294 294 295 295 296 295 295 295 295 294 294 293 292 291 290 290 291 291 292 292 293 293 294 294 294 294 294 294 294 293 291 290 290 290 289 289
284 284 284 284 284 284 283 283 283 283 283 283 283 283 283 284 284 284 285 285 285 285 285 286 288 290 291 293 292 291 291 290 290 291 291 292 292 293 293 294 294 295 295 295 295 295 295 294 294 294 293 292 291 290 291 291 292 292 292 293 293 293 293 293 293 294 294 293 292 290 290 289 289 289
283 283 283 283 283 283 283 283 283 283 283 282 282 283 283 283 283 284 284 284 284 284 285 285 286 288 289 291 292 291 291 290 290 290 290 291 292 292 292 293 293 294 294 294 295 295 295 294 294 295 295 293 292 291 291 291 291 292 292 292 293 293 293 293 293 293 294 294 292 291 290 289 289 289
281 281 281 281 282 282 282 282 282 282 282 282 282 282 283 283 283 283 283 284 284 284 284 284 285 286 287 289 290 291 291 290 290 290 290 290 291 291 291 292 292 293 293 293 294 294 295 294 294 295 295 294 293 291 290 290 291 291 291 292 292 292 293 293 293 293 293 293 292 291 290 289 289 288
279 279 279 279 280 281 281 280 281 281 281 281 281 282 282 283 283 283 283 283 284 284 284 284 284 285 285 286 288 290 291 290 290 290 290 290 290 290 291 291 291 291 292 293 293 294 294 295 294 295 295 294 294 293 292 291 290 291 291 291 291 292 292 292 292 292 293 293 293 291 290 289 289 288
276 277 277 277 278 279 279 279 279 279 279 279 280 281 281 282 282 283 283 283 283 284 284 284 284 284 285 285 285 287 290 290 290 290 290 290 290 290 290 291 291 291 291 292 292 293 294 294 294 295 295 294 294 294 293 291 290 290 290 290 291 291 292 292 292 292 292 292 292 291 290 289 288 288
275 275 275 275 276 276 277 277 277 276 277 278 279 280 281 282 282 283 283 283 283 283 284 284 284 284 284 284 284 285 287 289 290 290 289 289 289 289 290 290 290 290 290 290 291 292 293 293 293 294 294 294 294 294 294 293 291 290 290 290 290 290 291 291 292 292 292 292 292 292 290 289 288 288
272 273 273 273 273 274 275 275 275 275 276 277 277 278 279 280 281 282 283 283 284 284 284 283 283 284 284 284 284 284 285 288 289 290 289 289 289 288 289 289 289 289 289 290 290 291 292 292 293 293 293 293 294 294 294 293 292 290 289 289 290 290 290 291 291 291 291 291 291 291 290 289 288 287
270 270 270 270 271 272 272 273 274 274 275 276 276 277 278 279 279 280 281 282 283 283 284 284 283 283 284 284 284 284 284 286 288 289 289 289 289 288 288 289 289 289 289 289 289 290 291 291 291 291 291 291 292 293 293 293 291 290 289 288 289 289 289 290 290 291 291 290 290 290 289 288 288 287
269 269 269 270 270 271 271 272 273 274 275 275 275 275 276 277 278 279 280 281 282 283 283 284 284 284 284 284 284 284 284 284 286 288 289 289 289 288 288 288 288 288 288 289 289 289 290 290 290 290 290 290 290 291 292 291 291 289 288 288 288 289 289 289 290 290 290 289 289 288 288 287 287 287
268 268 269 269 270 271 272 272 273 274 274 275 275 276 276 276 276 277 278 280 281 282 283 283 284 284 284 284 284 284 284 284 284 286 288 289 289 289 288 288 288 288 289 289 288 288 289 289 289 289 289 289 290 291 291 291 291 289 288 288 288 288 288 288 289 289 288 288 288 287 287 287 287 286
269 269 269 270 270 270 271 272 272 272 273 274 274 275 276 276 276 277 277 278 279 281 282 283 284 284 284 284 284 284 283 284 284 284 286 288 289 289 289 288 288 288 288 288 288 288 288 288 288 288 288 288 289 290 290 291 290 289 288 287 287 288 288 288 288 288 288 287 286 286 286 286 286 286
269 269 270 270 270 271 271 271 272 272 273 273 273 274 275 276 277 277 278 278 278 279 280 282 283 284 284 284 284 284 284 283 284 284 284 286 288 289 289 289 288 288 288 288 288 288 288 288 288 288 287 288 288 288 289 289 290 289 287 286 286 287 287 287 288 288 287 287 286 286 286 286 286 286
270 270 270 271 271 271 272 272 272 273 273 273 274 274 275 276 277 277 278 278 279 279 279 280 282 283 284 284 284 284 284 283 283 284 284 284 286 288 289 289 288 288 288 288 288 288 288 288 288 288 288 288 287 287 287 288 289 289 287 285 285 285 285 286 287 287 287 287 287 287 286 285 285 285
271 271 272 272 273 273 273 273 273 274 274 274 274 274 275 275 276 277 277 278 278 279 279 279 281 283 284 284 284 284 284 284 283 283 284 284 285 286 288 289 289 289 288 287 287 287 287 288 288 288 288 287 287 287 287 288 289 290 289 287 285 285 285 285 285 286 286 286 286 286 285 285 284 284
272 273 273 273 274 274 274 274 274 274 273 273 273 274 274 274 275 275 276 277 277 278 279 280 280 282 284 284 284 284 284 284 284 284 284 284 285 286 288 289 289 289 288 287 287 287 287 287 287 287 287 287 287 287 288 288 288 289 290 288 288 287 287 285 285 285 285 285 286 285 284 284 285 285
273 273 273 274 274 274 274 274 273 273 273 273 273 273 274 274 275 275 275 276 277 278 279 280 280 281 283 284 284 285 285 285 285 285 285 285 286 286 287 288 288 288 288 287 287 287 287 287 287 287 287 287 287 287 287 288 288 289 289 290 291 290 288 286 285 284 284 284 285 284 284 284 284 284
273 273 274 273 274 274 274 274 274 274 274 273 273 274 274 274 274 275 275 276 277 277 279 280 280 281 283 285 285 285 285 285 285 285 285 285 286 286 286 287 288 288 288 288 287 287 286 286 286 286 286 286 287 287 287 287 288 289 289 290 290 290 289 287 285 283 283 283 283 283 283 282 282 283
274 274 274 274 274 274 274 274 274 274 274 274 273 273 273 274 274 275 275 276 277 278 280 280 281 281 283 285 285 285 285 285 285 285 285 285 286 286 286 287 287 287 287 287 287 287 286 286 286 286 286 286 286 286 286 286 287 288 289 290 289 288 288 287 285 284 283 282 282 282 282 282 282 282
274 274 274 274 274 274 274 274 274 274 274 274 274 274 274 274 274 275 275 276 277 279 281 281 281 281 283 285 285 285 285 285 285 285 285 285 285 285 286 286 287 287 287 287 287 287 286 286 285 285 286 286 286 286 286 286 287 287 288 289 288 287 287 286 285 285 283 282 281 281 281 281 281 282
275 275 274 274 274 274 274 274 274 274 274 274 274 274 274 274 274 275 275 276 277 279 281 282 282 282 283 285 286 286 286 286 285 285 285 285 285 285 286 286 286 286 287 287 287 287 286 286 285 285 285 285 285 285 286 286 287 287 288 288 288 287 287 286 285 284 284 282 281 281 281 281 281 282
275 274 274 274 274 274 274 274 274 274 274 274 274 274 274 274 274 274 275 276 277 278 280 282 282 282 283 284 285 285 286 286 285 285 285 285 285 285 285 286 286 286 286 286 286 286 286 286 285 285 284 284 284 284 285 285 286 287 287 287 287 286 286 286 284 283 283 282 281 281 281 281 281 282
274 274 274 274 274 274 274 274 274 275 275 275 275 275 275 275 275 275 275 276 278 278 280 281 282 282 283 283 283 284 285 285 285 285 285 285 285 285 285 285 286 286 286 285 285 285 285 285 285 284 284 283 283 283 284 284 285 286 286 286 286 285 285 285 283 282 282 281 281 281 282 282 282 282
273 273 273 273 273 273 274 274 274 275 275 275 275 275 275 275 275 275 275 276 278 278 280 281 282 282 282 283 283 284 285 285 285 286 285 285 285 285 285 285 285 285 285 285 285 284 284 284 284 284 283 283 282 282 283 283 284 284 284 285 285 284 283 283 282 282 282 282 281 281 282 282 283 283
272 272 272 273 274 274 275 275 274 274 274 275 275 276 275 275 275 275 275 276 278 279 280 281 281 281 282 283 284 284 285 285 285 285 285 285 285 285 285 285 284 284 284 284 284 283 283 283 283 283 283 282 282 282 282 282 282 282 282 283 283 283 283 283 282 282 282 282 281 281 282 282 282 282
272 271 271 273 275 275 275 275 274 274 275 275 276 276 276 275 275 275 276 277 278 279 280 281 281 282 282 283 284 285 285 285 285 285 285 285 285 285 285 284 284 284 283 283 283 282 282 282 282 282 283 283 283 283 282 282 282 282 282 282 282 283 283 283 283 282 282 282 282 281 281 281 281 281
271 271 271 273 275 275 275 275 275 275 275 276 277 277 277 276 276 276 277 278 279 279 280 281 281 282 283 283 284 284 284 284 284 285 285 285 285 285 284 284 283 283 283 282 282 282 281 282 282 282 282 282 282 283 282 282 282 281 281 282 281 282 283 283 283 283 282 282 282 281 280 280 279 279
270 271 272 273 274 275 275 275 275 276 277 278 278 278 278 278 278 278 279 280 280 280 281 281 281 281 282 283 283 283 284 284 284 284 284 285 285 285 284 283 283 282 282 282 282 282 282 282 281 281 281 281 282 282 281 281 280 280 280 280 280 280 280 281 283 283 282 282 282 281 280 279 278 278
270 271 273 274 274 275 275 276 276 277 277 278 279 279 279 279 279 280 280 280 281 281 281 281 281 281 281 282 283 283 283 283 284 284 284 284 284 284 283 282 282 282 282 282 282 282 281 281 280 280 280 280 281 281 281 280 280 280 279 279 279 279 279 279 280 281 281 281 281 280 279 278 278 278
271 272 273 274 274 274 275 275 276 277 278 278 278 279 279 279 279 280 280 281 281 281 281 282 282 281 281 282 283 283 283 283 283 284 284 284 283 283 282 281 281 281 281 281 280 280 280 279 279 279 279 279 279 280 280 280 280 279 279 278 278 278 278 277 278 278 278 278 278 279 279 278 278 278
271 272 272 273 273 274 274 275 275 276 277 278 279 279 279 279 280 280 281 281 281 282 282 282 282 282 282 282 282 283 283 284 284 284 284 283 283 282 282 281 281 280 280 279 279 278 278 278 278 278 278 278 278 278 279 279 279 279 279 278 278 277 277 276 276 276 276 276 276 276 276 277 277 277
271 271 272 272 273 273 274 274 275 276 277 278 279 279 279 279 280 280 280 281 281 281 281 282 282 282 282 282 282 283 283 283 283 283 283 282 282 281 280 280 279 279 278 278 278 278 277 277 277 276 276 277 277 277 278 278 278 279 279 278 277 277 276 276 276 276 275 275 275 275 276 276 276 276
Wind_Speed
26 29 30 32 34 35 36 37 37 37 37 37 35 35 36 37 40 40 40 43 46 44 44 44 42 40 39 39 38 38 38 36 36 37 37 35 35 36 36 36 36 35 35 34 34 33 32 31 30 29 28 28 26 25 24 23 22 22 21 20 20 20 19 19 18 19 19 19 19 20 20 20 19 18
22 24 26 28 32 33 35 36 36 37 38 39 38 37 36 36 39 41 40 44 47 44 43 44 42 40 39 38 39 39 39 37 37 38 38 37 36 36 37 37 36 36 36 35 34 34 33 33 32 31 30 29 28 27 26 25 24 24 23 22 22 21 21 20 20 20 21 21 21 21 21 21 20 19
25 25 24 25 26 28 31 34 35 36 37 38 39 39 39 37 39 40 39 45 50 45 43 46 44 41 41 40 40 41 40 38 38 39 39 38 37 37 38 38 37 37 37 36 35 35 34 34 34 33 32 31 30 29 28 27 26 25 24 24 23 23 22 22 22 22 22 21 21 22 22 22 21 21
29 29 28 27 25 24 26 28 31 34 35 37 38 38 40 40 40 40 39 45 52 49 44 46 45 43 42 41 42 43 41 39 38 39 39 39 39 40 40 39 38 38 38 37 36 35 36 36 35 35 34 33 32 31 30 28 27 26 25 25 24 24 24 24 24 24 23 22 22 23 23 23 23 22
31 31 32 31 30 27 27 27 26 28 31 34 37 37 38 40 40 39 39 44 51 52 47 46 46 44 43 45 46 45 44 42 40 39 39 40 41 41 40 39 39 38 39 39 37 37 37 37 37 37 36 35 34 33 31 30 29 28 27 26 25 25 25 25 25 24 24 23 24 24 24 24 24 24
34 34 34 33 33 31 31 31 28 27 27 28 32 35 36 39 39 38 38 42 48 52 50 47 46 45 44 46 48 48 48 46 43 42 41 41 41 41 40 40 39 39 39 39 39 38 38 39 39 39 38 37 36 35 33 32 31 30 28 27 26 26 26 26 26 25 25 25 25 25 25 26 26 26
39 39 38 37 35 33 34 34 32 31 29 27 28 30 32 36 39 38 37 39 44 50 50 47 47 47 46 46 47 47 48 47 46 45 44 42 41 42 42 41 40 39 40 40 40 39 39 39 40 40 40 39 38 37 35 34 33 31 30 28 27 27 28 28 27 27 26 25 25 26 27 28 27 27
43 43 43 42 39 37 37 37 36 34 32 31 30 30 29 30 33 36 37 39 42 45 48 49 48 46 47 48 47 45 46 47 47 47 45 44 44 44 44 43 41 40 40 41 41 41 40 40 41 42 42 41 40 39 38 36 35 33 32 30 29 29 29 28 28 27 26 26 27 28 28 29 28 27
45 45 46 46 44 43 42 41 39 37 36 34 33 33 32 30 29 31 34 38 41 42 46 49 47 45 46 48 48 47 46 46 47 48 48 47 47 47 47 46 43 42 41 42 43 42 42 42 42 42 43 43 43 41 39 38 37 36 34 32 31 30 29 29 28 28 27 28 29 29 30 29 29 28
47 47 48 48 47 47 46 46 44 42 40 39 37 36 35 33 31 30 31 33 37 42 46 48 46 45 46 46 48 49 48 47 48 48 49 50 50 50 50 49 46 43 42 43 43 44 44 44 44 44 45 45 45 43 41 40 39 38 36 34 33 31 30 29 29 29 29 29 30 30 30 30 30 29
48 48 49 50 49 49 49 49 48 46 44 43 42 40 38 36 34 34 33 32 34 38 43 47 47 46 45 45 46 48 48 48 50 50 50 52 53 53 52 50 48 45 43 44 45 45 45 45 45 46 47 46 45 45 44 43 42 40 39 36 34 33 32 31 30 30 30 31 31 31 30 30 31 30
49 49 50 51 51 51 51 50 50 49 48 46 46 44 42 39 37 36 36 35 35 36 40 44 46 46 45 45 44 45 46 50 54 55 53 53 53 52 52 51 48 46 45 46 47 48 48 48 48 48 48 48 47 48 47 46 44 44 41 39 37 35 34 33 31 31 31 32 32 31 31 31 30 30
51 50 51 51 52 52 51 51 50 50 49 47 48 48 46 43 41 39 38 38 38 38 40 42 44 44 46 46 45 45 48 52 56 56 54 53 53 52 51 51 49 48 48 49 50 51 51 50 50 51 51 50 50 50 50 49 48 47 44 42 40 38 36 35 33 32 32 33 33 32 32 31 30 30
54 53 52 52 52 52 52 51 50 50 48 47 48 49 48 46 44 42 41 40 40 41 42 43 43 42 45 48 48 48 49 51 52 53 54 55 54 52 52 53 52 51 51 53 55 55 53 52 52 52 53 52 52 53 53 53 52 49 46 45 43 40 38 36 35 34 34 34 34 33 33 31 30 29
58 57 55 54 53 53 52 52 51 50 49 47 47 48 48 47 46 44 44 44 43 43 44 45 44 44 46 49 48 47 48 47 48 51 53 54 54 54 55 56 56 55 54 55 57 57 55 54 54 54 55 54 55 55 56 55 53 51 49 47 45 42 40 39 37 36 36 35 35 35 34 32 30 29
60 60 59 57 56 55 54 52 52 51 50 49 47 47 47 48 47 47 47 46 45 45 45 46 47 47 47 48 47 45 46 47 47 49 51 53 55 56 57 59 59 58 55 55 56 57 56 56 56 56 56 56 56 57 57 57 55 53 51 49 47 45 43 41 39 38 37 36 35 35 34 32 31 30
60 59 59 59 58 57 55 53 51 51 51 50 48 47 47 47 49 49 49 49 48 47 47 48 50 50 49 49 47 45 45 45 46 47 50 53 55 56 58 60 59 57 55 53 54 56 57 57 59 59 57 57 58 58 59 58 57 55 53 51 50 48 46 44 41 40 39 37 36 36 35 33 32 31
58 58 58 58 59 58 56 54 52 51 51 50 49 48 47 47 48 49 50 51 50 49 49 50 52 51 50 50 49 45 44 45 46 49 50 51 54 56 57 58 56 55 56 55 54 56 58 58 60 61 59 59 58 58 59 59 58 57 55 54 52 50 48 46 43 42 41 39 38 37 36 34 33 31
57 58 58 58 58 59 58 56 53 51 49 48 48 49 49 50 50 50 51 51 52 52 51 52 54 53 51 50 49 47 46 47 48 49 49 48 49 50 53 55 55 56 59 57 54 57 59 58 60 61 60 60 59 57 58 60 60 59 57 56 54 53 51 48 46 44 43 41 39 38 37 36 34 32
54 55 54 54 55 56 57 57 53 47 44 44 46 48 50 50 50 51 51 51 52 53 53 53 54 54 53 50 48 47 47 48 48 47 45 44 44 46 50 54 55 56 58 57 56 58 59 58 60 60 59 59 59 59 59 59 61 61 60 58 56 55 53 50 48 47 45 43 41 40 38 37 35 32
48 49 48 47 47 49 50 51 48 42 39 42 45 48 50 51 52 53 52 51 50 52 53 54 54 55 54 52 49 46 46 48 47 45 44 45 44 46 50 53 54 54 56 58 58 58 59 60 60 58 57 57 57 59 60 60 61 62 62 60 58 57 54 52 51 49 47 45 43 41 40 38 35 33
42 43 42 39 39 42 43 43 41 37 37 40 44 47 50 52 54 57 56 54 52 50 50 52 54 56 56 54 51 49 46 46 46 46 48 48 46 47 50 54 53 51 53 57 57 56 58 61 59 56 53 53 55 58 60 61 61 62 62 61 60 58 56 54 53 51 48 47 44 43 41 39 36 35
38 39 39 37 36 38 39 39 37 35 35 38 42 46 48 52 56 58 57 54 51 50 50 51 53 55 57 55 53 51 48 46 46 48 51 51 48 49 53 54 50 46 51 57 56 54 57 58 57 55 52 50 52 56 58 59 60 60 62 62 61 59 57 55 54 52 50 48 46 43 42 40 38 37
42 41 39 37 34 33 34 35 35 35 35 36 39 42 45 51 56 57 55 52 49 48 49 51 52 54 56 55 54 53 51 48 47 48 51 52 52 52 54 53 50 50 53 54 51 52 55 56 55 56 54 51 49 51 54 57 58 58 60 62 62 60 58 57 55 53 51 49 46 44 42 41 40 39
45 43 40 38 36 35 37 38 38 39 39 38 40 42 45 47 49 49 51 52 51 50 50 51 52 53 54 55 54 54 53 52 50 48 50 52 54 55 55 53 52 54 55 52 48 47 50 53 54 54 53 52 51 49 49 51 55 57 59 61 61 60 59 59 57 55 53 50 47 45 43 42 41 40
45 45 44 44 43 41 40 39 39 40 39 39 41 44 45 45 44 44 46 48 50 52 53 52 52 52 52 53 54 54 54 54 52 50 49 50 53 56 57 56 54 55 54 52 50 47 46 49 53 54 53 53 52 49 45 46 50 54 55 57 58 58 58 59 58 57 55 53 50 47 45 43 42 41
45 45 45 45 44 41 40 39 39 40 40 40 41 42 42 43 44 44 46 47 49 51 53 54 55 54 53 53 53 54 55 54 54 52 50 49 50 53 56 57 57 57 54 51 51 50 48 48 51 53 54 53 51 49 47 46 48 50 52 55 56 55 55 56 57 58 57 55 53 49 46 44 44 42
41 42 42 41 40 40 40 40 40 41 42 42 43 43 43 44 44 45 47 48 48 49 52 55 56 55 55 54 53 54 54 54 53 52 51 49 49 50 52 54 56 57 55 52 51 51 50 50 50 52 52 52 52 52 51 49 47 47 50 52 53 54 55 55 56 56 57 56 54 51 49 47 46 43
39 40 40 38 38 38 38 40 41 42 41 40 41 41 42 43 44 45 47 47 48 50 52 54 55 56 56 55 54 53 53 52 51 51 51 49 47 47 47 49 52 55 55 54 54 52 50 49 50 50 50 51 52 53 53 51 49 46 47 49 50 51 54 56 57 57 57 56 54 52 50 49 46 44
40 41 40 38 37 37 37 39 41 42 42 40 39 39 40 41 42 44 46 47 49 50 52 53 55 56 55 54 53 50 49 49 50 51 50 48 46 45 44 45 48 51 54 56 56 55 52 50 48 48 49 50 51 52 52 51 50 47 45 47 48 49 52 56 59 59 57 56 54 51 49 47 45 44
44 44 43 42 41 39 39 40 41 43 43 41 40 40 40 41 43 44 44 45 47 48 51 53 55 55 53 52 52 50 48 48 49 48 48 47 45 44 43 43 45 48 51 55 57 57 56 52 48 47 48 49 50 51 50 51 51 48 47 47 48 50 52 56 59 60 58 56 53 50 48 47 46 45
46 44 43 42 41 39 39 41 43 44 44 43 43 43 42 42 42 42 42 43 44 46 48 50 52 53 50 48 49 49 48 47 47 47 46 45 45 43 42 42 44 46 48 52 55 56 56 54 49 47 48 48 49 50 50 50 50 49 48 47 48 50 51 53 56 60 60 56 53 50 49 49 48 46
43 42 39 39 39 39 40 43 44 45 46 46 46 45 43 41 41 41 41 42 42 42 42 45 49 50 48 45 45 46 46 45 45 45 44 44 44 43 43 43 44 45 47 50 53 55 56 54 50 48 47 47 47 48 49 49 49 48 47 46 47 50 51 51 53 58 60 58 54 51 50 49 48 47
40 39 38 39 39 40 42 43 44 45 47 47 47 45 44 42 41 41 41 41 39 37 36 41 47 46 43 40 39 41 44 45 44 44 43 43 42 43 44 44 44 45 47 49 51 53 55 55 52 49 47 47 47 48 49 49 49 49 48 47 48 50 52 52 53 55 58 59 57 54 52 50 49 47
39 39 40 42 42 42 42 43 44 45 46 46 46 45 44 44 43 42 41 39 37 34 31 34 41 44 44 42 38 37 40 41 42 43 42 42 42 43 45 45 44 46 47 48 50 51 52 53 53 50 48 47 47 47 48 49 50 50 50 50 50 51 52 53 53 53 55 57 57 54 53 51 49 47
39 40 41 43 43 43 42 43 44 46 46 47 46 45 45 44 43 42 40 37 34 32 30 29 32 37 42 44 42 41 42 42 43 43 43 43 43 43 45 45 45 45 46 48 49 50 49 51 51 50 48 46 44 44 46 48 50 51 51 51 50 50 50 51 51 51 52 54 55 55 53 52 50 48
37 37 37 38 39 40 42 43 44 45 46 47 46 45 44 43 41 39 37 34 32 31 29 28 28 30 34 38 39 40 42 43 43 43 43 43 42 43 44 45 45 45 46 47 48 48 48 49 49 50 48 44 42 43 44 45 47 49 49 49 49 49 49 49 49 49 49 52 54 54 53 50 48 46
31 31 32 34 36 38 41 43 43 44 44 45 45 43 41 39 37 35 33 32 31 30 27 27 28 29 30 34 37 39 40 41 41 42 42 42 41 42 44 45 45 46 46 46 46 47 47 47 48 49 49 47 46 45 44 44 45 47 47 46 47 47 47 47 48 50 50 50 52 51 50 47 44 43
26 28 30 33 34 37 39 41 41 41 41 42 41 39 37 35 33 31 29 30 31 29 27 27 28 28 29 31 35 37 37 38 39 41 42 42 41 42 44 45 46 46 45 45 45 45 45 46 48 49 50 50 50 49 47 46 47 47 46 45 44 45 46 46 48 50 50 50 50 48 45 42 39 37
25 27 30 32 33 36 37 37 38 38 39 38 36 32 29 28 28 26 26 28 30 30 28 26 25 26 27 30 33 35 35 35 36 38 39 39 40 42 45 46 46 46 46 45 45 46 46 47 48 48 48 49 48 46 43 42 42 42 43 43 43 43 44 46 48 50 50 49 49 47 43 40 37 36
27 28 29 30 32 33 33 33 35 37 36 34 32 29 24 22 23 23 24 26 28 29 28 27 25 25 25 26 28 30 32 33 35 37 38 38 40 43 45 45 45 46 45 45 46 47 47 47 47 46 46 47 46 42 37 36 37 38 40 41 41 40 40 42 46 49 49 48 47 44 41 38 36 35
27 28 28 29 31 32 31 32 34 35 33 30 29 29 27 24 24 24 26 27 28 27 26 27 27 26 25 24 24 26 27 30 32 34 36 38 41 42 43 43 44 45 45 45 45 45 45 44 44 44 44 45 45 42 37 36 38 38 39 40 41 40 38 38 40 42 43 43 42 41 38 36 34 34
26 27 28 29 31 31 31 31 31 31 30 28 27 27 28 28 27 27 28 27 26 24 24 26 26 25 23 23 24 26 28 29 31 33 36 40 42 43 43 43 44 45 44 43 42 41 41 41 42 43 43 43 43 40 37 37 38 39 40 41 41 39 37 34 33 33 33 32 32 33 33 33 32 32
25 26 26 28 29 30 29 29 29 28 26 24 23 23 23 25 26 26 26 25 24 23 23 25 26 25 23 23 23 25 27 29 32 36 38 40 42 42 42 42 42 41 40 39 38 37 38 38 39 40 40 41 40 38 36 36 36 38 40 41 40 38 36 33 30 29 29 28 27 28 29 30 29 29
26 26 26 26 26 27 27 27 26 25 24 22 21 20 19 19 20 21 23 25 26 26 25 25 24 24 23 23 24 25 27 30 33 36 37 38 39 38 38 38 38 38 37 37 37 36 35 36 35 36 37 37 37 36 35 35 35 36 37 38 38 37 36 35 34 32 31 30 29 30 30 30 29 28
Wind_Direction
289 281 275 270 267 265 263 262 260 259 259 260 263 265 265 267 268 268 268 268 267 267 267 266 265 264 263 262 260 257 254 252 251 250 248 246 245 246 245 244 244 244 242 242 242 241 238 236 235 235 234 231 230 231 233 234 234 234 235 237 240 241 242 245 245 245 246 246 245 244 243 241 239 235
310 302 293 284 277 272 268 265 263 261 260 259 259 260 262 263 265 266 268 269 268 267 266 266 265 265 263 262 261 260 258 256 254 254 253 250 247 247 246 245 243 243 242 240 240 240 237 234 233 232 231 231 231 232 235 236 236 237 238 239 240 242 243 243 243 244 244 244 245 245 245 243 238 234
317 314 310 304 296 288 279 273 268 264 262 260 259 259 259 259 261 264 267 270 269 267 266 266 265 265 264 263 262 262 260 259 257 256 256 253 249 247 247 245 243 241 241 239 238 238 236 233 232 231 230 230 231 233 236 238 238 239 240 240 240 241 242 242 242 242 242 242 243 243 243 241 237 233
316 313 312 310 309 306 297 288 280 273 267 263 260 259 259 258 259 261 265 267 267 266 266 267 266 265 264 263 262 261 260 259 257 257 257 255 251 247 247 246 243 240 239 238 236 235 234 232 231 231 230 229 231 234 236 238 240 241 242 242 242 242 242 242 243 243 242 241 240 239 238 238 235 232
311 310 309 308 308 309 306 302 296 288 279 272 266 261 259 258 258 260 262 264 266 266 265 265 266 265 263 261 260 260 260 258 257 256 256 255 252 249 247 247 245 241 239 237 235 233 233 231 230 230 230 230 231 233 235 236 239 241 242 243 244 244 245 246 246 245 243 241 239 238 237 236 235 233
307 305 304 303 304 305 304 302 302 300 294 286 277 270 264 261 259 259 261 263 266 267 265 264 264 263 262 261 260 260 260 260 259 257 256 255 253 251 248 246 245 243 240 238 235 233 231 230 229 230 230 230 232 233 234 235 237 239 240 242 243 245 247 248 248 248 245 243 241 239 237 237 236 234
303 302 300 299 299 300 299 299 299 299 298 296 290 283 276 269 265 262 260 262 264 266 267 265 263 262 261 261 260 261 262 262 261 258 256 254 253 252 248 245 244 244 241 239 237 234 231 229 228 229 229 230 232 233 234 234 235 237 238 239 240 243 246 249 250 250 247 245 243 241 239 238 237 236
298 297 296 296 296 295 294 293 294 295 296 296 294 292 288 282 276 270 265 262 263 266 268 266 263 262 260 260 260 261 261 261 260 258 256 254 252 250 248 245 244 243 242 239 238 236 233 230 229 228 229 230 231 232 233 234 235 235 237 237 237 240 244 247 250 250 249 246 244 243 242 241 240 238
295 294 292 291 292 292 291 289 289 290 291 292 292 292 291 290 287 282 274 267 264 264 265 265 265 264 261 259 258 258 259 259 258 257 255 253 251 249 247 244 242 242 241 240 238 237 235 232 230 228 229 229 230 231 232 233 234 235 235 236 237 239 242 245 248 249 247 246 245 244 244 243 241 240
292 291 290 289 288 289 288 287 287 287 288 288 288 288 289 290 290 287 282 275 270 266 264 264 265 265 262 260 257 255 256 257 257 256 255 252 249 246 245 243 241 240 241 241 240 239 237 233 230 229 229 229 230 230 232 233 234 235 235 236 237 238 240 243 244 246 245 245 245 244 244 243 242 240
288 288 287 287 287 287 286 286 286 286 285 285 284 284 285 287 287 286 284 281 276 271 267 265 264 264 263 262 259 256 256 256 256 256 255 252 248 245 244 243 242 241 241 242 241 240 239 236 232 230 229 229 230 230 232 232 233 235 235 236 237 239 241 242 243 243 244 244 244 244 244 243 242 241
286 285 284 284 285 285 285 285 284 284 284 284 283 281 282 283 283 284 283 282 279 276 272 269 266 264 263 263 261 257 254 252 251 250 249 249 248 246 245 244 243 242 242 243 242 240 238 236 234 232 230 229 229 230 231 232 233 234 235 236 237 239 241 243 244 244 244 244 243 243 242 243 242 241
286 284 282 281 281 282 283 283 283 282 282 282 281 280 280 281 280 280 280 280 279 276 274 272 269 264 262 261 260 257 252 250 249 249 248 249 248 247 245 245 244 243 243 243 242 240 238 236 234 233 231 229 228 229 231 231 232 233 234 235 237 239 240 243 245 245 245 245 244 243 242 241 241 241
288 285 283 280 279 279 279 281 281 280 280 279 279 279 279 279 278 278 277 276 275 274 272 271 269 265 261 260 258 256 255 253 252 251 250 250 249 246 244 244 243 243 243 243 242 240 238 236 236 235 233 231 229 229 231 232 232 232 233 235 236 238 239 242 244 245 245 245 244 243 242 241 241 240
288 287 284 282 280 278 277 276 277 279 279 278 277 276 276 276 275 274 273 272 272 271 270 270 268 264 263 263 259 256 257 255 253 252 251 250 249 246 244 244 243 241 240 241 243 242 239 237 237 237 236 233 230 230 232 233 233 232 233 235 236 237 239 241 243 244 245 245 244 243 243 242 241 240
286 286 285 283 281 279 277 276 275 276 277 278 277 275 274 273 272 271 270 269 268 267 267 267 267 264 264 265 261 256 256 255 254 253 251 249 248 246 245 246 246 245 242 241 243 245 243 239 238 238 238 236 233 232 232 234 235 234 233 234 236 237 239 240 241 242 243 244 243 243 243 242 241 240
282 282 283 282 281 280 278 277 275 274 275 276 277 277 275 272 270 269 268 266 265 264 264 264 264 264 264 264 262 259 257 255 254 252 250 248 247 245 245 247 248 247 245 244 245 247 246 243 241 241 240 238 235 233 233 233 234 234 234 234 236 236 238 240 240 241 242 243 242 242 242 241 240 240
280 280 280 281 281 280 279 277 276 275 274 275 276 277 276 273 270 268 267 266 264 262 260 260 262 264 263 263 264 263 259 256 255 253 251 249 248 247 249 250 248 248 249 247 246 248 247 245 244 243 241 239 237 236 235 234 234 234 234 234 235 235 237 239 240 240 241 242 242 241 240 240 240 239
281 281 281 281 281 280 280 279 278 277 276 276 275 275 275 273 272 268 266 265 264 263 261 260 261 263 263 264 265 264 260 257 256 256 255 254 253 253 254 252 248 247 248 246 243 245 247 245 244 245 244 241 239 238 237 235 233 234 234 233 234 235 236 237 238 239 240 241 241 240 240 239 239 238
284 283 283 283 282 282 281 281 280 279 278 276 274 272 271 272 272 270 267 264 263 262 262 262 262 263 263 264 264 264 261 258 256 256 256 255 252 250 249 247 245 244 244 242 240 242 245 245 245 246 246 243 241 239 238 236 234 233 233 233 233 234 234 236 237 238 239 240 240 240 239 239 238 237
289 287 286 286 286 285 284 284 284 282 279 275 272 270 269 268 268 268 267 266 263 262 262 262 263 262 262 262 262 261 260 257 255 252 250 248 245 241 241 242 243 241 241 241 240 239 242 244 245 246 245 244 243 241 239 237 234 232 232 232 232 233 233 234 236 237 238 239 239 239 239 238 237 235
292 292 292 291 290 288 287 287 287 286 281 276 273 270 269 268 267 265 265 266 265 263 262 262 261 261 261 260 260 259 257 255 252 248 247 247 243 239 239 241 242 241 241 242 240 237 239 242 242 242 242 241 241 240 239 237 234 231 230 230 231 232 232 232 234 235 236 237 238 238 237 236 235 234
292 292 292 292 291 290 290 290 290 288 284 280 276 272 269 268 266 264 264 267 268 266 263 261 260 260 260 259 259 258 256 254 251 247 246 246 242 239 240 241 240 239 241 243 239 235 237 239 237 236 236 234 236 238 237 236 234 230 228 228 229 230 230 231 233 234 235 236 236 236 235 234 234 233
294 294 293 293 292 291 291 291 290 288 285 282 280 277 273 269 267 265 264 265 267 267 265 262 259 259 259 259 259 258 258 255 252 248 246 244 242 240 240 240 238 237 241 242 239 235 237 237 236 236 235 234 236 238 237 236 234 230 227 227 227 227 228 229 230 232 233 235 234 234 234 233 233 233
297 295 293 292 293 292 290 290 289 287 284 281 278 275 273 273 273 272 268 265 263 263 264 264 261 258 257 258 257 257 257 256 254 250 247 245 242 240 239 238 238 239 242 243 242 240 238 236 235 235 234 233 235 238 237 235 232 229 227 226 226 226 226 227 228 229 231 232 232 232 232 232 233 233
295 294 294 295 297 297 294 289 287 286 284 282 277 274 272 273 274 273 272 270 266 262 261 262 261 257 254 254 254 254 254 255 254 253 250 247 244 241 240 239 238 239 241 242 243 242 240 239 238 236 233 231 232 234 234 232 229 226 224 224 224 224 225 226 227 227 228 229 230 230 230 230 232 233
295 296 297 299 302 303 298 291 289 289 287 284 281 278 276 274 273 272 271 271 268 264 260 259 258 256 252 250 250 250 251 252 253 253 252 251 248 244 242 240 239 240 242 242 243 242 241 242 241 239 237 234 230 228 229 229 228 225 222 221 221 221 222 224 226 226 227 228 228 228 228 228 230 230
297 299 301 305 307 307 302 297 294 290 286 283 281 280 278 276 274 273 272 271 271 267 260 256 255 253 251 248 247 247 248 249 251 252 253 253 251 248 245 242 241 240 239 240 242 243 242 242 242 242 241 236 231 230 230 229 228 227 223 219 218 220 222 223 224 225 226 227 227 227 225 225 226 226
300 302 304 305 303 300 297 296 294 291 288 286 282 280 280 277 273 271 270 270 272 271 263 256 253 252 250 248 247 247 247 248 249 250 251 252 251 248 247 245 243 240 238 237 239 241 242 243 243 242 241 237 234 234 233 231 229 228 224 220 221 224 225 224 224 225 225 226 226 226 226 226 227 227
301 301 301 300 299 298 298 298 297 295 293 290 285 282 280 277 274 272 270 269 271 273 268 260 254 252 250 248 247 246 245 245 245 246 247 247 247 245 244 244 242 239 237 236 236 238 240 241 241 240 238 236 234 233 233 233 232 229 228 229 229 227 225 225 225 225 225 225 226 225 225 225 226 228
303 303 302 301 300 300 300 300 298 295 292 289 286 285 283 280 277 276 274 272 272 273 271 263 256 253 251 248 244 243 242 242 242 244 244 243 243 242 242 241 240 239 237 236 235 236 237 238 238 236 234 233 232 231 230 232 234 234 233 233 230 227 226 224 223 222 224 224 224 223 222 221 222 224
305 305 304 303 301 300 300 300 298 295 291 289 287 286 285 283 280 278 277 276 275 276 273 263 255 252 251 247 241 239 239 240 241 241 241 241 241 241 241 239 238 238 237 235 234 234 234 235 236 235 234 233 232 230 228 228 231 235 235 233 229 228 228 226 223 222 223 222 220 220 219 219 220 222
304 304 303 304 303 302 301 298 296 294 292 290 288 286 284 282 280 278 278 277 279 282 276 260 250 249 249 246 241 238 238 239 240 240 239 239 239 239 239 239 238 238 238 237 235 233 232 232 232 232 233 232 231 231 230 228 228 231 233 232 229 226 226 226 225 223 222 219 217 217 217 217 219 221
300 301 302 301 300 299 297 296 296 296 294 291 289 286 285 283 280 278 277 277 280 287 278 256 247 247 248 244 239 235 234 236 238 238 238 239 238 238 238 238 238 238 238 238 237 234 232 230 228 228 228 227 226 227 228 229 231 232 233 233 232 229 227 226 225 223 222 220 217 215 216 216 218 221
300 300 300 300 299 297 296 296 298 299 297 293 290 286 284 283 280 278 278 277 281 289 284 260 247 246 246 245 243 238 235 235 235 235 236 235 235 236 238 238 237 237 237 236 236 235 232 229 226 223 221 221 221 222 224 227 230 233 234 233 231 230 228 226 223 222 221 218 216 215 215 215 216 219
297 297 297 298 298 297 298 300 302 302 299 296 293 288 283 281 280 277 277 278 280 287 287 272 257 250 246 244 244 242 240 237 234 232 231 231 232 235 237 237 237 236 236 236 235 234 231 229 225 220 216 215 215 218 221 223 226 229 231 230 228 226 225 223 221 220 218 217 216 216 217 217 217 218
296 296 298 300 301 303 305 305 303 303 301 298 295 290 284 281 279 276 275 277 280 283 282 276 269 262 253 247 244 241 240 237 230 226 227 229 231 234 235 235 233 233 233 234 234 232 229 227 223 219 215 211 211 215 220 221 222 225 227 227 225 222 220 218 216 215 215 215 215 216 217 219 219 219
305 307 308 310 312 312 311 309 306 304 302 300 295 290 284 282 279 276 274 275 278 281 280 275 273 269 262 253 245 240 238 235 230 227 228 230 232 233 234 233 231 230 231 231 231 230 229 225 221 217 214 212 212 214 216 216 217 218 219 221 222 219 217 216 215 214 213 213 213 215 217 218 219 220
317 317 317 319 320 319 316 314 312 309 306 302 297 292 287 283 279 276 275 275 277 279 279 276 274 272 264 253 244 240 237 233 228 227 228 231 234 236 235 233 230 228 227 227 227 227 225 222 220 219 217 216 218 219 218 217 216 215 215 217 220 222 221 219 216 213 212 211 211 212 212 213 215 216
326 324 324 326 327 325 323 323 322 319 314 308 303 298 294 287 281 278 277 276 277 278 277 274 272 272 266 254 245 241 241 238 234 232 231 234 237 239 236 232 228 227 226 224 223 224 224 224 224 222 219 218 220 221 220 218 216 214 213 214 217 221 224 223 218 213 210 210 209 208 207 207 208 209
331 328 330 333 332 330 332 336 337 333 326 317 308 304 300 293 287 284 281 280 281 281 278 272 271 272 270 262 251 244 242 240 239 237 237 239 241 240 235 228 225 224 223 222 222 225 227 227 225 221 218 217 218 217 215 213 210 208 207 208 208 211 217 221 220 216 214 212 210 209 207 205 206 208
334 332 335 339 337 335 339 345 346 343 340 332 320 310 303 296 291 288 285 285 286 284 276 271 270 270 267 264 260 254 248 244 242 239 239 239 238 233 227 222 221 223 224 224 225 227 226 224 222 219 216 216 217 215 212 210 208 205 202 202 203 203 206 211 215 217 218 217 215 212 208 204 204 208
338 338 340 343 340 338 343 348 346 343 344 343 335 322 312 304 300 297 293 288 285 281 274 270 270 269 264 261 260 258 254 251 249 245 242 239 234 229 224 221 222 224 224 223 222 222 221 220 219 218 215 214 215 214 211 208 207 205 201 200 201 201 201 203 205 208 211 213 214 214 213 209 207 209
341 341 343 344 341 339 341 344 344 342 342 341 339 333 323 314 307 305 300 292 285 280 275 272 272 273 271 268 265 261 257 255 252 247 243 238 233 229 225 221 220 220 218 216 215 215 216 217 216 215 213 212 212 211 208 204 202 201 200 200 200 199 198 197 196 196 197 199 200 203 207 208 209 210
344 343 344 343 341 339 340 342 343 344 344 342 339 337 332 325 318 313 308 300 291 282 277 275 275 275 275 272 266 262 258 253 247 242 237 233 228 224 220 216 215 213 212 212 212 211 211 212 212 211 210 209 208 207 207 205 201 199 198 197 197 196 196 195 195 194 193 194 197 200 203 205 208 210